Regional Weather Roundup
Issued by NWS

Home | Current Version | Previous Version | Text Only | Print | Product List | Glossary Off
Versions: 1 2 3 4 5 6 7 8 9 10 11 12 13 14 15 16 17 18 19 20 21 22 23 24 25 26 27 28 29 30 31 32 33 34 35 36 37 38 39 40 41 42 43 44 45 46 47 48 49 50

238
ASUS45 KBOU 031407
RWRCO

WEATHER ROUNDUP FOR COLORADO
NATIONAL WEATHER SERVICE DENVER/BOULDER CO
700 AM MST SAT DEC 03 2016

NOTE: "FAIR" INDICATES FEW OR NO CLOUDS BELOW 12000 FEET WITH NO
SIGNIFICANT WEATHER AND/OR OBSTRUCTIONS TO VISIBILITY.

COZ001>005-013-030-031-031500-
...NORTHWEST COLORADO...

CITY           SKY/WX    TMP DP  RH WIND       PRES   REMARKS
CRAIG          FAIR       8   4  83 SE3       30.17F
HAYDEN         FAIR      10   3  72 E7        30.15S WCI   0
MEEKER         FAIR       5   0  79 N7        30.19S WCI  -7
MOUNT WERNER   NOT AVBL
STEAMBOAT SPGS MOCLDY    13  10  85 E7        30.15S WCI   3
WALDEN           N/A     12   5  73 S14       30.05S WCI  -3
$$

COZ006>008-011-031500-
...WEST CENTRAL VALLEYS...

CITY           SKY/WX    TMP DP  RH WIND       PRES   REMARKS
GRAND JUNCTION FAIR      17  15  92 E5        30.21S WCI  10
MONTROSE       CLOUDY    25  21  85 SE6       30.23R WCI  18
EAGLE          PTCLDY    16  12  86 CALM      30.19S
RIFLE          CLOUDY    19  12  74 W6        30.22S WCI  11
DELTA          CLOUDY    30  21  71 CALM      30.22S
NUCLA          FAIR      18  12  79 SE6       30.22F WCI   9
$$

COZ017>023-064>068-031500-
...SOUTHWEST COLORADO...

CITY           SKY/WX    TMP DP  RH WIND       PRES   REMARKS
DURANGO        FAIR      18  13  80 S3        30.11R
CORTEZ         MOCLDY    19  16  88 NE6       30.14R WCI  11
PAGOSA SPRINGS FAIR     N/A N/A N/A CALM      30.10R
TELLURIDE      FAIR      12  10  92 SE5       30.12S WCI   4
WOLF CREEK PAS FAIR      10  10 100 SW8       30.09R WCI  -1
$$

COZ009-010-012-014-032>034-037-058>063-031500-
...CENTRAL COLORADO...

CITY           SKY/WX    TMP DP  RH WIND       PRES   REMARKS
ASPEN          FLURRIES  14  11  87 S5        30.13R WCI   6
BUENA VISTA    FAIR       6   1  81 SW6       30.05F WCI  -5
COPPER MTN     NOT AVBL
BERTHOUD PASS  CLOUDY     0 -13  55 NW39G47   29.88R WCI -29
COTTONWOOD PAS FAIR      19  16  86 W7        29.99F WCI  10
GUNNISON       FLURRIES  18  15  88 CALM      30.15R
KREMMLING      SNOW       9   3  78 E3        30.14F VSB 1/2
LEADVILLE      MOCLDY     9   4  80 NE9       30.02R WCI  -4
MONARCH PASS   CLOUDY     9   5  85 W41G47    30.05F WCI -17
SALIDA         FAIR      12   8  83 N5        30.14F WCI   5
SUNLIGHT       CLOUDY   N/A N/A N/A SW7       30.09S
WILKERSON PASS FAIR     N/A N/A N/A SW13G21   29.96R
$$

COZ069>075-031500-
...SAN LUIS VALLEY/SANGRE DE CRISTO MOUNTAINS...

CITY           SKY/WX    TMP DP  RH WIND       PRES   REMARKS
ALAMOSA        CLOUDY    20  18  92 W5        30.11R WCI  13
LA VETA PASS   CLOUDY    16  12  86 NE21G29   30.00S FOG     WCI  -2
SAGUACHE       FAIR      14   9  79 NW13      30.10S WCI   0
$$

COZ035-036-038>040-031500-
...NORTHERN COLORADO FRONT RANGE...

CITY           SKY/WX    TMP DP  RH WIND       PRES   REMARKS
DENVER INTL AP FAIR      17  16  95 SW5       30.01S FOG     WCI  10
DMNS CITY PARK   N/A     16  12  82 E2G8      30.01S
AURORA         PTCLDY    19  15  82 SE3       30.00F
FRONT RANGE AP NOT AVBL
ERIE MUNI ARPT MOCLDY    17  15  90 S3        30.02F
BOULDER MUN AP MOCLDY    21  18  86 CALM      30.01S
CENTENNIAL     FAIR      15  10  80 CALM      29.99F
BROOMFIELD     NOT AVBL
FORT COLLINS   FAIR      16  12  86 S3        30.02S
LONGMONT       MOCLDY    16  12  86 CALM      30.04S
$$

COZ041-046-047-076>085-087-088-031500-
...PIKES PEAK/PALMER DIVIDE AND SOUTHERN FOOTHILLS...

CITY           SKY/WX    TMP DP  RH WIND       PRES   REMARKS
COLO. SPRINGS  FAIR      19  15  84 E8        30.03R FOG     WCI   9
A. F. ACADEMY  CLOUDY    20  17  90 CALM      30.00F
SCHRIEVER AFB  NOT AVBL
ELLICOTT       FAIR     N/A N/A N/A N3        30.03R
FALCON         MOCLDY    16  15  95 CALM      30.01F FOG
FORT CARSON    FAIR      15  11  85 NW7       30.02S WCI   5
LIMON          FAIR      20  17  88 S6        30.05R WCI  12
MONUMENT HILL  FAIR      18  14  86 SW13      29.98F WCI   4
TRINIDAD       FAIR      15  12  88 NW7       30.06S WCI   5
$$

COZ042>045-048>051-090-091-031500-
...NORTHEAST COLORADO...

CITY           SKY/WX    TMP DP  RH WIND       PRES   REMARKS
GREELEY ARPT   FAIR       8   4  83 CALM      30.05R
AKRON          FAIR      20  15  81 S10       30.03S WCI   9
BURLINGTON     FAIR      19  12  74 S10       30.09F WCI   7
WRAY           NOT AVBL
STERLING       FAIR      14  12  92 W5        30.04F WCI   6
HOLYOKE        FAIR      21  19  93 SW7       30.09F WCI  13
FORT MORGAN    FAIR      15  12  88 SW3       30.04S
$$

COZ086-089-092>099-031500-
...SOUTHEAST COLORADO...

CITY           SKY/WX    TMP DP  RH WIND       PRES   REMARKS
PUEBLO         FAIR      21  16  81 CALM      30.07F
LA JUNTA       FAIR      21  17  84 SW7       30.09F WCI  12
LAMAR          MIX PCPN  29  22  75 S3        30.10F
SPRINGFIELD      N/A     29  27  92 CALM      30.09F
$$




USA.gov is the U.S. government's official web portal to all federal, state and local government web resources and services.